Location: Marysville Observatory
(48.1092°N, 122.1645°W)
Time: 10:36:50
(UTC-07:00)

ISS - Visible Passes

Search period start: 22 May 2015 00:00
Search period end: 01 June 2015 00:00
Orbit: 399 x 404 km, 51.6° (Epoch: 22 May)

Date Brightness Start Highest point End Pass type
(mag) Time Alt. Az. Time Alt. Az. Time Alt. Az.
22 May -1.4 02:12:13 21° ESE 02:12:13 21° ESE 02:13:46 10° E visible
22 May -3.1 03:44:47 17° W 03:47:10 70° NNW 03:50:27 10° ENE visible
23 May -3.5 02:53:17 52° SW 02:53:58 81° SSE 02:57:15 10° ENE visible
23 May -2.2 04:27:25 10° W 04:30:34 44° N 04:33:43 10° ENE visible
24 May -2.3 02:01:43 36° E 02:01:43 36° E 02:03:59 10° ENE visible
24 May -2.5 03:34:17 12° W 03:37:14 50° NNW 03:40:27 10° ENE visible
25 May -0.8 01:10:05 13° E 01:10:05 13° E 01:10:35 10° E visible
25 May -3.0 02:42:38 32° W 02:43:55 64° NNW 02:47:11 10° ENE visible
25 May -2.1 04:17:30 10° WNW 04:20:39 42° N 04:23:47 10° ENE visible
26 May -3.3 01:50:55 72° ENE 01:50:55 72° ENE 01:53:54 10° ENE visible
26 May -2.1 03:24:07 10° WNW 03:27:15 43° N 03:30:24 10° ENE visible
27 May -1.6 00:59:05 24° E 00:59:05 24° E 01:00:34 10° ENE visible
27 May -2.4 02:31:37 17° W 02:33:50 48° N 02:37:02 10° ENE visible
27 May -2.3 04:07:24 10° WNW 04:10:36 49° N 04:13:47 10° E visible
28 May -0.6 00:07:06 10° E 00:07:06 10° E 00:07:08 10° ENE visible
28 May -2.9 01:39:37 43° WNW 01:40:26 60° NNW 01:43:41 10° ENE visible
28 May -2.1 03:14:01 10° WNW 03:17:09 43° N 03:20:18 10° ENE visible
29 May -3.2 00:47:21 70° NE 00:47:21 70° NE 00:50:19 10° ENE visible
29 May -2.1 02:20:33 10° WNW 02:23:41 42° N 02:26:50 10° ENE visible
29 May -2.9 03:57:08 10° WNW 04:00:23 67° NNE 04:03:39 10° ESE visible
29 May -2.9 23:54:23 47° E 23:54:23 47° E 23:56:55 10° ENE visible
30 May -2.3 01:27:02 10° W 01:30:12 46° N 01:33:22 10° ENE visible
30 May -2.4 03:03:44 10° WNW 03:06:56 51° NNE 03:10:09 10° E visible
30 May -2.9 22:57:19 10° SW 23:00:21 38° SSE 23:03:25 10° ENE visible
31 May -2.7 00:33:29 10° W 00:36:42 56° NNW 00:39:56 10° ENE visible
31 May -2.1 02:10:17 10° WNW 02:13:26 44° N 02:16:35 10° E visible
31 May -3.5 03:46:45 10° WNW 03:50:01 78° SSW 03:53:16 10° ESE visible
31 May -2.2 22:04:25 10° SSW 22:07:04 23° SE 22:09:44 10° E visible
31 May -3.3 23:39:58 10° WSW 23:43:13 77° NNW 23:46:29 10° ENE visible
